Weather History for Montreal, QC

Change the Weather History Date:

Tuesday, May 21, 2013

  Actual Average Record
Temperature  
Mean Temperature 61 °F -  
Max Temperature 66 °F 64 °F 84 °F (2012)
Min Temperature 56 °F 47 °F 41 °F (2002)
Degree Days  
Heating Degree Days 4    
Growing Degree Days 11 (Base 50)    
Moisture  
Dew Point 53 °F    
Average Humidity 78    
Maximum Humidity 94    
Minimum Humidity 60    
Precipitation  
Precipitation 0.12 in - - ()
Sea Level Pressure  
Sea Level Pressure 29.92 in    
Wind  
Wind Speed 11 mph ()    
Max Wind Speed 21 mph    
Max Gust Speed 28 mph    
Visibility 14.6 miles    
Events Rain    
Averages and records for this station are not official NWS values.
T = Trace of Precipitation, MM = Missing Value Source: Averaged Metar Reports

Daily Weather History Graph

Daily Weather History Graph

Search for Another Location

Airport:

Trip Planner

Search our weather history database for the weather conditions in past years. The results will help you decide how hot, cold, wet, or windy it might be!

Date:

Astronomy

May. 21, 2013 Rise Set
Actual Time 5:17 AM EDT 8:25 PM EDT
Civil Twilight 4:42 AM EDT 9:01 PM EDT
Nautical Twilight 3:56 AM EDT 9:47 PM EDT
Astronomical Twilight 3:01 AM EDT 10:43 PM EDT
Moon 4:26 PM EDT (5/21) 2:56 AM EDT (5/21)
Length of Visible Light 16h 18m
Length of Day
15h 07m
Waxing Gibbous, 84% of the Moon is Illuminated
May 21
Waxing Gibbous
May 25
Full
May 31
Last Quarter
Jun 8
New
Jun 16
First Quarter

Hourly Weather History & Observations

Time (EDT) Temp. Dew Point Humidity Pressure Visibility Wind Dir Wind Speed Gust Speed Precip Events Conditions
12:00 AM 62.6 °F 51.8 °F 68% 29.97 in 15.0 mi East 8.1 mph - N/A   Mostly Cloudy
1:00 AM 62.6 °F 51.8 °F 68% 29.96 in 15.0 mi ESE 8.1 mph - N/A   Mostly Cloudy
2:00 AM 62 °F 53 °F 64% 29.92 in 15 mi ESE 6.9 mph - -   Overcast
2:00 AM 62.6 °F 53.6 °F 72% 29.92 in 15.0 mi ESE 5.8 mph - N/A   Overcast
3:00 AM 62.6 °F 51.8 °F 68% 29.91 in 15.0 mi NE 9.2 mph - N/A   Overcast
4:00 AM 62.6 °F 50.0 °F 63% 29.88 in 15.0 mi East 11.5 mph - N/A   Overcast
4:10 AM 62.6 °F 51.8 °F 68% 29.88 in 10.0 mi East 9.2 mph - N/A Rain Light Rain Showers
5:00 AM 59.0 °F 53.6 °F 82% 29.85 in 15.0 mi East 10.4 mph - N/A Rain Light Rain Showers
6:00 AM 57.2 °F 53.6 °F 88% 29.86 in 15.0 mi ENE 12.7 mph - N/A Rain Light Rain Showers
7:00 AM 57.2 °F 55.4 °F 94% 29.89 in 10.0 mi NNE 11.5 mph - N/A Rain Light Rain Showers
8:00 AM 57 °F 55 °F 91% 29.92 in 15 mi NNE 17.3 mph - - Rain Light Rain
8:00 AM 57.2 °F 55.4 °F 94% 29.92 in 15.0 mi NNE 16.1 mph 24.2 mph N/A Rain Light Rain
8:55 AM 57.2 °F 53.6 °F 88% 29.94 in 15.0 mi NNE 18.4 mph - N/A   Light Drizzle
9:00 AM 57.2 °F 53.6 °F 88% 29.94 in 15.0 mi NE 17.3 mph 24.2 mph N/A   Light Drizzle
9:28 AM 57.2 °F 53.6 °F 88% 29.97 in 15.0 mi NNE 16.1 mph 26.5 mph N/A   Light Drizzle
9:48 AM 57.2 °F 53.6 °F 88% 29.98 in 15.0 mi NNE 17.3 mph - N/A   Overcast
10:00 AM 57.2 °F 53.6 °F 88% 29.99 in 15.0 mi NNE 16.1 mph - N/A   Overcast
11:00 AM 57.2 °F 53.6 °F 88% 29.99 in 15.0 mi NNE 16.1 mph 25.3 mph N/A   Overcast
12:00 PM 59.0 °F 53.6 °F 82% 30.00 in 15.0 mi NE 17.3 mph 24.2 mph N/A   Overcast
1:00 PM 60.8 °F 53.6 °F 77% 29.99 in 15.0 mi NE 13.8 mph 21.9 mph N/A   Overcast
2:00 PM 62 °F 52 °F 61% 29.99 in 15 mi ENE 12.7 mph - -   Partly Cloudy
2:00 PM 62.6 °F 51.8 °F 68% 29.98 in 15.0 mi East 13.8 mph - N/A   Overcast
3:00 PM 64.4 °F 51.8 °F 64% 29.96 in 15.0 mi ENE 15.0 mph - N/A   Mostly Cloudy
4:00 PM 66.2 °F 53.6 °F 64% 29.93 in 15.0 mi ENE 9.2 mph - N/A   Overcast
5:00 PM 66.2 °F 51.8 °F 60% 29.93 in 15.0 mi ENE 15.0 mph - N/A   Overcast
6:00 PM 64.4 °F 51.8 °F 64% 29.94 in 15.0 mi ENE 15.0 mph - N/A   Overcast
6:43 PM 64.4 °F 51.8 °F 64% 29.90 in 15.0 mi NE 20.7 mph 27.6 mph N/A Rain Light Rain Showers
7:00 PM 62.6 °F 51.8 °F 68% 29.91 in 12.0 mi NE 16.1 mph 26.5 mph N/A Rain Light Rain Showers
8:00 PM 60 °F 55 °F 77% 29.91 in 15 mi East 11.5 mph - - Rain Light Rain
8:00 PM 60.8 °F 55.4 °F 82% 29.91 in 15.0 mi East 8.1 mph - N/A Rain Light Rain
9:00 PM 59.0 °F 55.4 °F 88% 29.80 in 15.0 mi East 17.3 mph 26.5 mph N/A Rain Light Rain Showers
9:17 PM 59.0 °F 53.6 °F 82% 29.85 in 15.0 mi NE 13.8 mph - N/A   Overcast
10:00 PM 59.0 °F 55.4 °F 88% 29.85 in 15.0 mi East 10.4 mph - N/A   Overcast
11:00 PM 57.2 °F 53.6 °F 88% 29.82 in 15.0 mi NNE 10.4 mph - N/A   Overcast
11:35 PM 57.2 °F 55.4 °F 94% 29.81 in 15.0 mi NNE 9.2 mph - N/A Rain Light Rain Showers